Location: Hope
(40.9110°N, 74.9680°W)
Time: 09:32:01
(UTC-04:00)

OTV 5 (USA 277) - Visible Passes

Search period start: 27 May 2018 00:00
Search period end: 06 June 2018 00:00
Orbit: 308 x 326 km, 54.5° (Epoch: 06 May)

Date Brightness Start Highest point End Pass type
(mag) Time Alt. Az. Time Alt. Az. Time Alt. Az.
28 May ? 04:41:12 10° S 04:43:25 22° SE 04:45:39 10° ENE visible
29 May ? 04:54:58 10° SW 04:57:42 70° SE 05:00:26 10° NE visible
30 May ? 03:37:50 13° SE 03:38:05 13° SE 03:39:33 10° E visible
31 May ? 03:51:42 32° SSE 03:52:17 37° SE 03:54:52 10° ENE visible
01 Jun ? 04:05:31 30° WSW 04:06:38 66° NW 04:09:23 10° NE visible
02 Jun ? 02:48:24 15° E 02:48:24 15° E 02:49:07 10° ENE visible
02 Jun ? 04:19:15 13° W 04:21:09 25° NNW 04:23:32 10° NNE visible
03 Jun ? 03:02:05 37° ENE 03:02:05 37° ENE 03:03:56 10° NE visible
03 Jun ? 04:34:16 10° WNW 04:35:48 14° NNW 04:37:20 10° N visible
04 Jun ? 03:15:43 39° NNW 03:15:43 39° NNW 03:18:15 10° NE visible
05 Jun ? 03:29:18 16° NW 03:30:12 18° NNW 03:32:14 10° NNE visible
